Terug naar catalogus

ARIANE 3 DEB

ActiefHEO
NORAD 20488·DEBRIS·🇫🇷 France

Gelanceerd Jul 21, 1988 vanaf Guiana Space Centre

Loading…

Volgende Passages (komende 24 uur)

TLE

VersSource: Space-Track

Epoch: Sep 14, 2026, 02:15 UTC

1 20488U 88063F   26257.09381576 -.00000002  00000-0  00000-0 0  9991
2 20488   7.2116 102.3778 4786557 187.3719 161.8210  4.96765875660139

Volg ARIANE 3 DEB in realtime met AllMySat

Download on the App Store